Ozark, AL

3:08 PM CDT on April 22, 2018 (GMT -0500)
Cairns Army Air Field

Weather History for KOZR - April, 2014

Change the Weather History Date:

Wednesday, April 2, 2014

  Actual Average Record
Temperature  
Mean Temperature 66 °F -  
Max Temperature 81 °F 72 °F 87 °F (2006)
Min Temperature 51 °F 49 °F 37 °F (2001)
Cooling Degree Days 1    
Growing Degree Days 16 (Base 50)    
Moisture  
Dew Point 55 °F    
Average Humidity 90    
Maximum Humidity 100    
Minimum Humidity 36    
Precipitation  
Precipitation 0.00 in - - ()
Sea Level Pressure  
Sea Level Pressure 30.14 in    
Wind  
Wind Speed 3 mph (SSE)    
Max Wind Speed 10 mph    
Max Gust Speed -    
Visibility 4 miles    
Events Fog    
Averages and records for this station are not official NWS values.
T = Trace of Precipitation, MM = Missing Value Source: NWS Daily Summary

Daily Weather History Graph

Daily Weather History Graph

Search for Another Location

Airport or City:

Astronomy

Apr. 02, 2014 Rise Set
Actual Time 6:30 AM CDT 7:02 PM CDT
Civil Twilight 6:05 AM CDT 7:27 PM CDT
Nautical Twilight 5:37 AM CDT 7:55 PM CDT
Astronomical Twilight 5:08 AM CDT 8:25 PM CDT
Moon 8:24 AM CDT (4/2) 10:13 PM CDT (4/2)
Length of Visible Light 13h 21m
Length of Day
12h 32m
Waxing Crescent, 10% of the Moon is Illuminated
Apr 2
Waxing Crescent
Apr 7
First Quarter
Apr 15
Full
Apr 22
Last Quarter
Apr 29
New

Hourly Weather History & Observations

Time (CDT) Temp. Heat Index Dew Point Humidity Pressure Visibility Wind Dir Wind Speed Gust Speed Precip Events Conditions
12:48 AM 55.4 °F - 51.8 °F 88% 30.13 in 9.0 mi NNW 1.2 mph - N/A   Partly Cloudy
12:58 AM 55.2 °F - 52.3 °F 90% 30.14 in 5.0 mi Calm Calm - N/A   Partly Cloudy
1:38 AM 53.6 °F - 51.8 °F 94% 30.13 in 10.0 mi SW 2.3 mph - N/A   Mostly Cloudy
1:43 AM 53.6 °F - 51.8 °F 94% 30.12 in 10.0 mi SSW 3.5 mph - N/A   Mostly Cloudy
1:58 AM 54.0 °F - 52.2 °F 94% 30.12 in 6.0 mi SW 3.5 mph - N/A   Overcast
2:08 AM 55.4 °F - 53.6 °F 94% 30.12 in 0.8 mi South 3.5 mph - N/A   Overcast
2:13 AM 55.4 °F - 53.6 °F 94% 30.12 in 0.5 mi South 3.5 mph - N/A Fog Fog
2:23 AM 55.4 °F - 53.6 °F 94% 30.12 in 0.5 mi South 3.5 mph - N/A Fog Fog
2:28 AM 53.6 °F - 53.6 °F 100% 30.11 in 0.2 mi SE 2.3 mph - N/A Fog Fog
2:43 AM 53.6 °F - 51.8 °F 94% 30.11 in 0.2 mi SE 3.5 mph - N/A Fog Fog
2:48 AM 53.6 °F - 53.6 °F 100% 30.11 in 0.2 mi SE 3.5 mph - N/A Fog Fog
2:58 AM 53.2 °F - 52.7 °F 98% 30.12 in 0.2 mi South 2.3 mph - N/A Fog Fog
3:08 AM 53.6 °F - 53.6 °F 100% 30.11 in 0.2 mi ESE 1.2 mph - N/A Fog Fog
3:18 AM 53.6 °F - 53.6 °F 100% 30.11 in 0.2 mi Calm Calm - N/A Fog Fog
3:58 AM 54.3 °F - 54.0 °F 99% 30.12 in 0.2 mi South 2.3 mph - N/A Fog Fog
4:58 AM 53.1 °F - 52.9 °F 99% 30.12 in 0.2 mi Calm Calm - N/A Fog Fog
5:43 AM 53.6 °F - 53.6 °F 100% 30.13 in 0.2 mi Calm Calm - N/A Fog Fog
5:48 AM 53.6 °F - 53.6 °F 100% 30.13 in 0.5 mi Calm Calm - N/A Fog Fog
5:53 AM 53.6 °F - 53.6 °F 100% 30.13 in 0.5 mi ENE 1.2 mph - N/A Fog Fog
5:58 AM 53.1 °F - 52.9 °F 99% 30.14 in 0.2 mi East 2.3 mph - N/A Fog Fog
6:03 AM 53.6 °F - 53.6 °F 100% 30.13 in 0.2 mi ENE 1.2 mph - N/A Fog Fog
6:13 AM 53.6 °F - 51.8 °F 94% 30.14 in 0.2 mi NE 1.2 mph - N/A Fog Fog
7:33 AM 51.8 °F - 51.8 °F 100% 30.15 in 1.0 mi Calm Calm - N/A   Overcast
7:38 AM 51.8 °F - 51.8 °F 100% 30.15 in 0.8 mi Calm Calm - N/A   Overcast
7:43 AM 51.8 °F - 51.8 °F 100% 30.15 in 0.5 mi ESE 1.2 mph - N/A Fog Fog
7:48 AM 51.8 °F - 51.8 °F 100% 30.16 in 0.5 mi Calm Calm - N/A Fog Fog
7:53 AM 51.8 °F - 51.8 °F 100% 30.16 in 0.2 mi Calm Calm - N/A Fog Fog
7:58 AM 51.8 °F - 51.8 °F 100% 30.17 in 0.5 mi Calm Calm - N/A Fog Fog
8:03 AM 53.6 °F - 53.6 °F 100% 30.16 in 0.5 mi ESE 1.2 mph - N/A Fog Fog
8:08 AM 53.6 °F - 53.6 °F 100% 30.16 in 0.2 mi ESE 1.2 mph - N/A Fog Fog
8:18 AM 53.6 °F - 53.6 °F 100% 30.16 in 0.2 mi East 2.3 mph - N/A Fog Fog
8:23 AM 53.6 °F - 53.6 °F 100% 30.16 in 0.2 mi SSE 3.5 mph - N/A Fog Fog
8:43 AM 55.4 °F - 55.4 °F 100% 30.16 in 0.2 mi SE 4.6 mph - N/A Fog Fog
8:48 AM 55.4 °F - 55.4 °F 100% 30.16 in 0.2 mi SE 4.6 mph - N/A Fog Fog
8:58 AM 55.2 °F - 55.2 °F 100% 30.17 in 0.2 mi SSE 3.5 mph - N/A Fog Fog
9:08 AM 55.4 °F - 55.4 °F 100% 30.17 in 0.5 mi SSE 4.6 mph - N/A Fog Fog
9:13 AM 55.4 °F - 55.4 °F 100% 30.17 in 0.8 mi South 2.3 mph - N/A   Mist
9:18 AM 55.4 °F - 55.4 °F 100% 30.17 in 1.0 mi SSE 3.5 mph - N/A   Mist
9:23 AM 57.2 °F - 57.2 °F 100% 30.17 in 1.8 mi South 3.5 mph - N/A   Overcast
9:28 AM 55.4 °F - 55.4 °F 100% 30.17 in 4.0 mi Variable 1.2 mph - N/A   Overcast
9:38 AM 57.2 °F - 57.2 °F 100% 30.18 in 10.0 mi NW 1.2 mph - N/A   Mostly Cloudy
9:58 AM 58.5 °F - 58.5 °F 100% 30.19 in 10.0 mi Variable 2.3 mph - N/A   Scattered Clouds
10:58 AM 65.1 °F - 64.4 °F 98% 30.19 in 10.0 mi Variable 2.3 mph - N/A   Clear
11:58 AM 72.1 °F - 60.8 °F 67% 30.18 in 10.0 mi SSE 5.8 mph - N/A   Clear
12:58 PM 75.7 °F - 61.5 °F 61% 30.16 in 10.0 mi South 6.9 mph - N/A   Clear
1:58 PM 77.4 °F - 60.1 °F 55% 30.14 in 10.0 mi SSW 8.1 mph - N/A   Clear
2:58 PM 78.4 °F - 59.0 °F 51% 30.12 in 10.0 mi South 8.1 mph - N/A   Clear
3:58 PM 80.2 °F 80.8 °F 59.0 °F 48% 30.09 in 10.0 mi South 10.4 mph - N/A   Clear
4:58 PM 81.0 °F - 51.6 °F 36% 30.09 in 10.0 mi South 10.4 mph - N/A   Clear
5:58 PM 79.2 °F - 52.5 °F 39% 30.09 in 10.0 mi South 10.4 mph - N/A   Clear
6:58 PM 73.6 °F - 54.3 °F 51% 30.11 in 10.0 mi South 6.9 mph - N/A   Clear
7:58 PM 70.0 °F - 56.3 °F 62% 30.12 in 10.0 mi SSW 8.1 mph - N/A   Clear
8:58 PM 66.6 °F - 57.0 °F 71% 30.13 in 10.0 mi South 8.1 mph - N/A   Clear
9:58 PM 64.6 °F - 58.5 °F 80% 30.14 in 10.0 mi South 5.8 mph - N/A   Clear
10:58 PM 63.1 °F - 58.6 °F 85% 30.13 in 10.0 mi SSE 4.6 mph - N/A   Clear
11:58 PM 63.3 °F - 59.7 °F 88% 30.12 in 10.0 mi South 6.9 mph - N/A   Clear